Year,Month,Day,Hour,Minute,Value (Times are PST for windspeed in km/hr)
2015,08,29,00,00,0.10
2015,08,29,00,01,0.10
2015,08,29,00,02,0.00
2015,08,29,00,03,0.00
2015,08,29,00,04,0.00
2015,08,29,00,05,0.00
2015,08,29,00,06,0.00
2015,08,29,00,07,0.00
2015,08,29,00,08,0.00
2015,08,29,00,09,0.00
2015,08,29,00,10,0.00
2015,08,29,00,11,0.00
2015,08,29,00,12,0.00
2015,08,29,00,13,0.00
2015,08,29,00,14,0.00
2015,08,29,00,15,0.00
2015,08,29,00,16,0.00
2015,08,29,00,17,0.00
2015,08,29,00,18,0.00
2015,08,29,00,19,0.00
2015,08,29,00,20,0.00
2015,08,29,00,21,0.00
2015,08,29,00,22,0.00
2015,08,29,00,23,0.00
2015,08,29,00,24,0.00
2015,08,29,00,25,0.00
2015,08,29,00,26,0.00
2015,08,29,00,27,0.00
2015,08,29,00,28,0.00
2015,08,29,00,29,0.00
2015,08,29,00,30,0.00
2015,08,29,00,31,0.00
2015,08,29,00,32,0.00
2015,08,29,00,33,0.00
2015,08,29,00,34,0.00
2015,08,29,00,35,0.00
2015,08,29,00,36,0.00
2015,08,29,00,37,0.00
2015,08,29,00,38,0.00
2015,08,29,00,39,0.00
2015,08,29,00,40,0.00
2015,08,29,00,41,0.00
2015,08,29,00,42,0.00
2015,08,29,00,43,0.00
2015,08,29,00,44,0.00
2015,08,29,00,45,0.00
2015,08,29,00,46,0.00
2015,08,29,00,47,0.00
2015,08,29,00,48,0.00
2015,08,29,00,49,0.00
2015,08,29,00,50,0.00
2015,08,29,00,51,0.00
2015,08,29,00,52,0.00
2015,08,29,00,53,0.00
2015,08,29,00,54,0.00
2015,08,29,00,55,0.00
2015,08,29,00,56,0.00
2015,08,29,00,57,0.00
2015,08,29,00,58,0.00
2015,08,29,00,59,0.00
2015,08,29,01,00,0.00
2015,08,29,01,01,0.00
2015,08,29,01,02,0.00
2015,08,29,01,03,0.00
2015,08,29,01,04,0.00
2015,08,29,01,05,0.00
2015,08,29,01,06,0.00
2015,08,29,01,07,0.00
2015,08,29,01,08,0.00
2015,08,29,01,09,0.00
2015,08,29,01,10,0.00
2015,08,29,01,11,0.00
2015,08,29,01,12,0.00
2015,08,29,01,13,0.00
2015,08,29,01,14,0.00
2015,08,29,01,15,0.00
2015,08,29,01,16,0.00
2015,08,29,01,17,0.00
2015,08,29,01,18,0.00
2015,08,29,01,19,0.00
2015,08,29,01,20,0.00
2015,08,29,01,21,0.00
2015,08,29,01,22,0.00
2015,08,29,01,23,0.00
2015,08,29,01,24,0.00
2015,08,29,01,25,0.00
2015,08,29,01,26,0.00
2015,08,29,01,27,1.00
2015,08,29,01,28,0.60
2015,08,29,01,29,0.00
2015,08,29,01,30,0.00
2015,08,29,01,31,0.00
2015,08,29,01,32,0.00
2015,08,29,01,33,0.00
2015,08,29,01,34,0.00
2015,08,29,01,35,0.00
2015,08,29,01,36,0.10
2015,08,29,01,37,0.00
2015,08,29,01,38,0.00
2015,08,29,01,39,0.00
2015,08,29,01,40,0.00
2015,08,29,01,41,0.20
2015,08,29,01,42,0.20
2015,08,29,01,43,0.20
2015,08,29,01,44,0.00
2015,08,29,01,45,0.80
2015,08,29,01,46,1.20
2015,08,29,01,47,0.00
2015,08,29,01,48,0.00
2015,08,29,01,49,0.20
2015,08,29,01,50,0.20
2015,08,29,01,51,3.00
2015,08,29,01,52,2.60
2015,08,29,01,53,3.80
2015,08,29,01,54,0.50
2015,08,29,01,55,3.10
2015,08,29,01,56,6.40
2015,08,29,01,57,7.40
2015,08,29,01,58,7.60
2015,08,29,01,59,9.20
2015,08,29,02,00,8.00
2015,08,29,02,01,4.60
2015,08,29,02,02,11.00
2015,08,29,02,03,9.00
2015,08,29,02,04,7.10
2015,08,29,02,05,9.70
2015,08,29,02,06,8.40
2015,08,29,02,07,7.10
2015,08,29,02,08,10.40
2015,08,29,02,09,10.30
2015,08,29,02,10,10.60
2015,08,29,02,11,11.00
2015,08,29,02,12,10.40
2015,08,29,02,13,12.00
2015,08,29,02,14,8.00
2015,08,29,02,15,13.10
2015,08,29,02,16,14.60
2015,08,29,02,17,10.50
2015,08,29,02,18,7.30
2015,08,29,02,19,8.80
2015,08,29,02,20,10.00
2015,08,29,02,21,9.10
2015,08,29,02,22,6.60
2015,08,29,02,23,14.20
2015,08,29,02,24,13.60
2015,08,29,02,25,15.80
2015,08,29,02,26,11.50
2015,08,29,02,27,10.70
2015,08,29,02,28,12.00
2015,08,29,02,29,10.00
2015,08,29,02,30,9.40
2015,08,29,02,31,6.50
2015,08,29,02,32,11.90
2015,08,29,02,33,12.40
2015,08,29,02,34,11.80
2015,08,29,02,35,13.10
2015,08,29,02,36,8.50
2015,08,29,02,37,11.30
2015,08,29,02,38,16.60
2015,08,29,02,39,13.00
2015,08,29,02,40,12.60
2015,08,29,02,41,9.10
2015,08,29,02,42,10.60
2015,08,29,02,43,15.20
2015,08,29,02,44,12.30
2015,08,29,02,45,13.10
2015,08,29,02,46,11.30
2015,08,29,02,47,11.60
2015,08,29,02,48,9.40
2015,08,29,02,49,14.40
2015,08,29,02,50,10.20
2015,08,29,02,51,12.60
2015,08,29,02,52,14.60
2015,08,29,02,53,11.00
2015,08,29,02,54,10.60
2015,08,29,02,55,11.60
2015,08,29,02,56,11.20
2015,08,29,02,57,13.50
2015,08,29,02,58,10.10
2015,08,29,02,59,10.10
2015,08,29,03,00,11.30
2015,08,29,03,01,11.70
2015,08,29,03,02,10.70
2015,08,29,03,03,15.40
2015,08,29,03,04,15.60
2015,08,29,03,05,9.90
2015,08,29,03,06,15.80
2015,08,29,03,07,16.50
2015,08,29,03,08,11.00
2015,08,29,03,09,12.60
2015,08,29,03,10,11.10
2015,08,29,03,11,11.50
2015,08,29,03,12,7.40
2015,08,29,03,13,8.90
2015,08,29,03,14,9.50
2015,08,29,03,15,7.30
2015,08,29,03,16,11.00
2015,08,29,03,17,10.50
2015,08,29,03,18,12.70
2015,08,29,03,19,10.20
2015,08,29,03,20,10.00
2015,08,29,03,21,8.20
2015,08,29,03,22,10.80
2015,08,29,03,23,7.60
2015,08,29,03,24,10.30
2015,08,29,03,25,8.10
2015,08,29,03,26,10.00
2015,08,29,03,27,7.70
2015,08,29,03,28,9.20
2015,08,29,03,29,6.80
2015,08,29,03,30,8.10
2015,08,29,03,31,12.00
2015,08,29,03,32,13.70
2015,08,29,03,33,12.30
2015,08,29,03,34,13.80
2015,08,29,03,35,12.00
2015,08,29,03,36,11.70
2015,08,29,03,37,11.50
2015,08,29,03,38,7.70
2015,08,29,03,39,8.80
2015,08,29,03,40,7.80
2015,08,29,03,41,9.90
2015,08,29,03,42,7.40
2015,08,29,03,43,10.10
2015,08,29,03,44,13.90
2015,08,29,03,45,12.60
2015,08,29,03,46,15.60
2015,08,29,03,47,14.90
2015,08,29,03,48,12.60
2015,08,29,03,49,12.30
2015,08,29,03,50,13.20
2015,08,29,03,51,9.50
2015,08,29,03,52,10.40
2015,08,29,03,53,11.20
2015,08,29,03,54,10.10
2015,08,29,03,55,9.70
2015,08,29,03,56,9.30
2015,08,29,03,57,11.90
2015,08,29,03,58,9.70
2015,08,29,03,59,7.40
2015,08,29,04,00,6.90
2015,08,29,04,01,9.60
2015,08,29,04,02,9.80
2015,08,29,04,03,12.00
2015,08,29,04,04,15.20
2015,08,29,04,05,9.90
2015,08,29,04,06,13.50
2015,08,29,04,07,9.40
2015,08,29,04,08,12.40
2015,08,29,04,09,11.30
2015,08,29,04,10,11.00
2015,08,29,04,11,12.00
2015,08,29,04,12,10.40
2015,08,29,04,13,13.20
2015,08,29,04,14,13.50
2015,08,29,04,15,11.50
2015,08,29,04,16,8.10
2015,08,29,04,17,10.40
2015,08,29,04,18,10.30
2015,08,29,04,19,10.20
2015,08,29,04,20,9.00
2015,08,29,04,21,11.00
2015,08,29,04,22,12.00
2015,08,29,04,23,10.90
2015,08,29,04,24,13.60
2015,08,29,04,25,10.80
2015,08,29,04,26,10.40
2015,08,29,04,27,9.20
2015,08,29,04,28,9.40
2015,08,29,04,29,12.90
2015,08,29,04,30,10.30
2015,08,29,04,31,9.30
2015,08,29,04,32,13.00
2015,08,29,04,33,12.60
2015,08,29,04,34,10.30
2015,08,29,04,35,5.80
2015,08,29,04,36,9.50
2015,08,29,04,37,9.40
2015,08,29,04,38,8.30
2015,08,29,04,39,12.60
2015,08,29,04,40,10.00
2015,08,29,04,41,11.40
2015,08,29,04,42,12.30
2015,08,29,04,43,9.80
2015,08,29,04,44,8.60
2015,08,29,04,45,12.40
2015,08,29,04,46,9.10
2015,08,29,04,47,8.90
2015,08,29,04,48,7.00
2015,08,29,04,49,7.90
2015,08,29,04,50,10.70
2015,08,29,04,51,6.40
2015,08,29,04,52,11.30
2015,08,29,04,53,9.90
2015,08,29,04,54,6.70
2015,08,29,04,55,10.50
2015,08,29,04,56,12.60
2015,08,29,04,57,13.30
2015,08,29,04,58,9.60
2015,08,29,04,59,8.50
2015,08,29,05,00,8.90
2015,08,29,05,01,6.10
2015,08,29,05,02,5.50
2015,08,29,05,03,4.40
2015,08,29,05,04,5.20
2015,08,29,05,05,5.10
2015,08,29,05,06,3.10
2015,08,29,05,07,5.50
2015,08,29,05,08,6.10
2015,08,29,05,09,6.60
2015,08,29,05,10,6.00
2015,08,29,05,11,9.90
2015,08,29,05,12,8.70
2015,08,29,05,13,7.50
2015,08,29,05,14,6.40
2015,08,29,05,15,7.70
2015,08,29,05,16,5.50
2015,08,29,05,17,5.70
2015,08,29,05,18,7.90
2015,08,29,05,19,4.50
2015,08,29,05,20,5.60
2015,08,29,05,21,5.40
2015,08,29,05,22,3.70
2015,08,29,05,23,4.10
2015,08,29,05,24,9.50
2015,08,29,05,25,5.50
2015,08,29,05,26,6.40
2015,08,29,05,27,7.40
2015,08,29,05,28,9.30
2015,08,29,05,29,9.60
2015,08,29,05,30,6.40
2015,08,29,05,31,11.60
2015,08,29,05,32,8.30
2015,08,29,05,33,8.10
2015,08,29,05,34,8.10
2015,08,29,05,35,9.60
2015,08,29,05,36,10.10
2015,08,29,05,37,8.80
2015,08,29,05,38,8.40
2015,08,29,05,39,8.30
2015,08,29,05,40,7.70
2015,08,29,05,41,11.30
2015,08,29,05,42,7.40
2015,08,29,05,43,6.50
2015,08,29,05,44,7.80
2015,08,29,05,45,4.70
2015,08,29,05,46,6.20
2015,08,29,05,47,6.00
2015,08,29,05,48,3.80
2015,08,29,05,49,3.40
2015,08,29,05,50,3.90
2015,08,29,05,51,7.40
2015,08,29,05,52,7.50
2015,08,29,05,53,4.70
2015,08,29,05,54,0.20
2015,08,29,05,55,0.10
2015,08,29,05,56,0.10
2015,08,29,05,57,4.50
2015,08,29,05,58,3.50
2015,08,29,05,59,3.80
2015,08,29,06,00,1.90
2015,08,29,06,01,6.00
2015,08,29,06,02,6.70
2015,08,29,06,03,11.30
2015,08,29,06,04,8.90
2015,08,29,06,05,8.00
2015,08,29,06,06,10.50
2015,08,29,06,07,15.30
2015,08,29,06,08,11.30
2015,08,29,06,09,13.00
2015,08,29,06,10,18.70
2015,08,29,06,11,19.80
2015,08,29,06,12,20.50
2015,08,29,06,13,17.30
2015,08,29,06,14,15.00
2015,08,29,06,15,8.30
2015,08,29,06,16,10.70
2015,08,29,06,17,24.10
2015,08,29,06,18,18.80
2015,08,29,06,19,17.50
2015,08,29,06,20,19.00
2015,08,29,06,21,11.40
2015,08,29,06,22,10.10
2015,08,29,06,23,3.30
2015,08,29,06,24,3.10
2015,08,29,06,25,2.90
2015,08,29,06,26,10.70
2015,08,29,06,27,12.20
2015,08,29,06,28,10.70
2015,08,29,06,29,7.30
2015,08,29,06,30,8.10
2015,08,29,06,31,8.30
2015,08,29,06,32,14.20
2015,08,29,06,33,12.60
2015,08,29,06,34,8.90
2015,08,29,06,35,6.30
2015,08,29,06,36,5.80
2015,08,29,06,37,4.10
2015,08,29,06,38,7.20
2015,08,29,06,39,4.80
2015,08,29,06,40,4.70
2015,08,29,06,41,4.90
2015,08,29,06,42,3.80
2015,08,29,06,43,7.90
2015,08,29,06,44,11.20
2015,08,29,06,45,11.40
2015,08,29,06,46,10.50
2015,08,29,06,47,9.00
2015,08,29,06,48,10.00
2015,08,29,06,49,6.80
2015,08,29,06,50,6.10
2015,08,29,06,51,5.40
2015,08,29,06,52,4.50
2015,08,29,06,53,7.10
2015,08,29,06,54,6.10
2015,08,29,06,55,5.40
2015,08,29,06,56,6.10
2015,08,29,06,57,4.80
2015,08,29,06,58,4.40
2015,08,29,06,59,5.00
2015,08,29,07,00,5.80
2015,08,29,07,01,9.40
2015,08,29,07,02,9.30
2015,08,29,07,03,13.30
2015,08,29,07,04,14.60
2015,08,29,07,05,19.00
2015,08,29,07,06,15.40
2015,08,29,07,07,16.20
2015,08,29,07,08,15.50
2015,08,29,07,09,17.20
2015,08,29,07,10,15.00
2015,08,29,07,11,10.20
2015,08,29,07,12,11.90
2015,08,29,07,13,14.90
2015,08,29,07,14,16.20
2015,08,29,07,15,11.20
2015,08,29,07,16,15.60
2015,08,29,07,17,12.80
2015,08,29,07,18,18.80
2015,08,29,07,19,15.60
2015,08,29,07,20,15.20
2015,08,29,07,21,12.60
2015,08,29,07,22,11.40
2015,08,29,07,23,13.70
2015,08,29,07,24,14.30
2015,08,29,07,25,8.50
2015,08,29,07,26,12.60
2015,08,29,07,27,16.60
2015,08,29,07,28,15.70
2015,08,29,07,29,11.20
2015,08,29,07,30,13.90
2015,08,29,07,31,10.30
2015,08,29,07,32,10.00
2015,08,29,07,33,10.00
2015,08,29,07,34,11.40
2015,08,29,07,35,11.30
2015,08,29,07,36,8.70
2015,08,29,07,37,12.60
2015,08,29,07,38,14.70
2015,08,29,07,39,13.80
2015,08,29,07,40,10.70
2015,08,29,07,41,14.00
2015,08,29,07,42,12.10
2015,08,29,07,43,12.90
2015,08,29,07,44,16.00
2015,08,29,07,45,14.90
2015,08,29,07,46,11.00
2015,08,29,07,47,10.70
2015,08,29,07,48,11.00
2015,08,29,07,49,10.70
2015,08,29,07,50,16.90
2015,08,29,07,51,13.10
2015,08,29,07,52,12.80
2015,08,29,07,53,9.20
2015,08,29,07,54,10.90
2015,08,29,07,55,8.90
2015,08,29,07,56,7.80
2015,08,29,07,57,10.80
2015,08,29,07,58,14.50
2015,08,29,07,59,8.60
2015,08,29,08,00,10.50
2015,08,29,08,01,11.20
2015,08,29,08,02,12.00
2015,08,29,08,03,11.70
2015,08,29,08,04,12.30
2015,08,29,08,05,14.60
2015,08,29,08,06,15.60
2015,08,29,08,07,10.40
2015,08,29,08,08,16.10
2015,08,29,08,09,13.90
2015,08,29,08,10,12.00
2015,08,29,08,11,11.70
2015,08,29,08,12,13.30
2015,08,29,08,13,9.50
2015,08,29,08,14,7.70
2015,08,29,08,15,11.60
2015,08,29,08,16,12.10
2015,08,29,08,17,10.00
2015,08,29,08,18,9.70
2015,08,29,08,19,10.20
2015,08,29,08,20,12.20
2015,08,29,08,21,11.70
2015,08,29,08,22,9.20
2015,08,29,08,23,8.50
2015,08,29,08,24,7.50
2015,08,29,08,25,13.30
2015,08,29,08,26,12.40
2015,08,29,08,27,13.60
2015,08,29,08,28,12.00
2015,08,29,08,29,12.10
2015,08,29,08,30,10.20
2015,08,29,08,31,10.50
2015,08,29,08,32,9.30
2015,08,29,08,33,12.60
2015,08,29,08,34,12.40
2015,08,29,08,35,13.80
2015,08,29,08,36,12.80
2015,08,29,08,37,11.40
2015,08,29,08,38,12.80
2015,08,29,08,39,14.30
2015,08,29,08,40,11.30
2015,08,29,08,41,10.10
2015,08,29,08,42,13.30
2015,08,29,08,43,16.70
2015,08,29,08,44,10.30
2015,08,29,08,45,12.80
2015,08,29,08,46,11.20
2015,08,29,08,47,16.90
2015,08,29,08,48,16.20
2015,08,29,08,49,13.60
2015,08,29,08,50,15.70
2015,08,29,08,51,14.70
2015,08,29,08,52,12.80
2015,08,29,08,53,13.80
2015,08,29,08,54,14.60
2015,08,29,08,55,16.20
2015,08,29,08,56,15.50
2015,08,29,08,57,15.40
2015,08,29,08,58,14.90
2015,08,29,08,59,12.50
2015,08,29,09,00,16.20
2015,08,29,09,01,15.50
2015,08,29,09,02,16.70
2015,08,29,09,03,12.20
2015,08,29,09,04,16.40
2015,08,29,09,05,16.30
2015,08,29,09,06,15.70
2015,08,29,09,07,15.10
2015,08,29,09,08,13.40
2015,08,29,09,09,13.50
2015,08,29,09,10,16.60
2015,08,29,09,11,15.70
2015,08,29,09,12,18.20
2015,08,29,09,13,20.50
2015,08,29,09,14,21.50
2015,08,29,09,15,19.40
2015,08,29,09,16,15.90
2015,08,29,09,17,15.70
2015,08,29,09,18,16.20
2015,08,29,09,19,13.50
2015,08,29,09,20,17.10
2015,08,29,09,21,20.80
2015,08,29,09,22,19.10
2015,08,29,09,23,17.30
2015,08,29,09,24,16.10
2015,08,29,09,25,13.60
2015,08,29,09,26,13.60
2015,08,29,09,27,11.50
2015,08,29,09,28,11.30
2015,08,29,09,29,11.00
2015,08,29,09,30,15.30
2015,08,29,09,31,21.40
2015,08,29,09,32,21.20
2015,08,29,09,33,15.90
2015,08,29,09,34,18.20
2015,08,29,09,35,15.50
2015,08,29,09,36,13.30
2015,08,29,09,37,13.80
2015,08,29,09,38,15.50
2015,08,29,09,39,14.40
2015,08,29,09,40,11.70
2015,08,29,09,41,15.40
2015,08,29,09,42,15.00
2015,08,29,09,43,16.60
2015,08,29,09,44,15.20
2015,08,29,09,45,14.10
2015,08,29,09,46,11.30
2015,08,29,09,47,16.30
2015,08,29,09,48,16.90
2015,08,29,09,49,15.00
2015,08,29,09,50,13.90
2015,08,29,09,51,17.70
2015,08,29,09,52,16.20
2015,08,29,09,53,14.90
2015,08,29,09,54,15.00
2015,08,29,09,55,14.00
2015,08,29,09,56,9.90
2015,08,29,09,57,13.90
2015,08,29,09,58,11.50
2015,08,29,09,59,14.40
2015,08,29,10,00,18.90
2015,08,29,10,01,14.30
2015,08,29,10,02,12.60
2015,08,29,10,03,13.00
2015,08,29,10,04,17.20
2015,08,29,10,05,14.90
2015,08,29,10,06,13.40
2015,08,29,10,07,19.50
2015,08,29,10,08,16.40
2015,08,29,10,09,18.60
2015,08,29,10,10,19.80
2015,08,29,10,11,14.70
2015,08,29,10,12,12.70
2015,08,29,10,13,17.90
2015,08,29,10,14,11.00
2015,08,29,10,15,12.00
2015,08,29,10,16,10.30
2015,08,29,10,17,7.10
2015,08,29,10,18,13.40
2015,08,29,10,19,15.00
2015,08,29,10,20,15.90
2015,08,29,10,21,13.40
2015,08,29,10,22,11.40
2015,08,29,10,23,15.90
2015,08,29,10,24,12.10
2015,08,29,10,25,11.80
2015,08,29,10,26,15.90
2015,08,29,10,27,15.20
2015,08,29,10,28,13.30
2015,08,29,10,29,12.00
2015,08,29,10,30,11.80
2015,08,29,10,31,11.00
2015,08,29,10,32,12.40
2015,08,29,10,33,7.30
2015,08,29,10,34,6.70
2015,08,29,10,35,9.00
2015,08,29,10,36,6.70
2015,08,29,10,37,9.90
2015,08,29,10,38,14.70
2015,08,29,10,39,11.70
2015,08,29,10,40,15.80
2015,08,29,10,41,16.30
2015,08,29,10,42,21.80
2015,08,29,10,43,20.90
2015,08,29,10,44,18.40
2015,08,29,10,45,14.50
2015,08,29,10,46,17.20
2015,08,29,10,47,20.00
2015,08,29,10,48,16.20
2015,08,29,10,49,12.50
2015,08,29,10,50,13.90
2015,08,29,10,51,6.90
2015,08,29,10,52,10.80
2015,08,29,10,53,13.40
2015,08,29,10,54,12.70
2015,08,29,10,55,10.00
2015,08,29,10,56,15.20
2015,08,29,10,57,10.00
2015,08,29,10,58,14.10
2015,08,29,10,59,14.70
2015,08,29,11,00,15.50
2015,08,29,11,01,14.20
2015,08,29,11,02,15.30
2015,08,29,11,03,13.80
2015,08,29,11,04,13.10
2015,08,29,11,05,13.90
2015,08,29,11,06,15.40
2015,08,29,11,07,8.50
2015,08,29,11,08,14.50
2015,08,29,11,09,11.70
2015,08,29,11,10,12.40
2015,08,29,11,11,9.00
2015,08,29,11,12,8.80
2015,08,29,11,13,15.80
2015,08,29,11,14,14.80
2015,08,29,11,15,12.30
2015,08,29,11,16,7.80
2015,08,29,11,17,2.40
2015,08,29,11,18,3.70
2015,08,29,11,19,6.40
2015,08,29,11,20,9.70
2015,08,29,11,21,8.30
2015,08,29,11,22,11.40
2015,08,29,11,23,12.60
2015,08,29,11,24,11.50
2015,08,29,11,25,10.10
2015,08,29,11,26,7.70
2015,08,29,11,27,8.50
2015,08,29,11,28,15.90
2015,08,29,11,29,12.70
2015,08,29,11,30,13.90
2015,08,29,11,31,6.80
2015,08,29,11,32,13.60
2015,08,29,11,33,15.80
2015,08,29,11,34,16.00
2015,08,29,11,35,19.40
2015,08,29,11,36,17.90
2015,08,29,11,37,16.10
2015,08,29,11,38,14.70
2015,08,29,11,39,18.60
2015,08,29,11,40,11.20
2015,08,29,11,41,21.10
2015,08,29,11,42,22.80
2015,08,29,11,43,20.00
2015,08,29,11,44,15.70
2015,08,29,11,45,21.00
2015,08,29,11,46,20.30
2015,08,29,11,47,25.50
2015,08,29,11,48,21.40
2015,08,29,11,49,17.30
2015,08,29,11,50,28.20
2015,08,29,11,51,16.40
2015,08,29,11,52,16.90
2015,08,29,11,53,20.40
2015,08,29,11,54,23.50
2015,08,29,11,55,21.50
2015,08,29,11,56,25.70
2015,08,29,11,57,20.90
2015,08,29,11,58,37.10
2015,08,29,11,59,17.50
2015,08,29,12,00,16.90
2015,08,29,12,01,17.50
2015,08,29,12,02,22.90
2015,08,29,12,03,25.30
2015,08,29,12,04,23.90
2015,08,29,12,05,19.60
2015,08,29,12,06,20.90
2015,08,29,12,07,26.70
2015,08,29,12,08,23.70
2015,08,29,12,09,26.40
2015,08,29,12,10,27.70
2015,08,29,12,11,29.40
2015,08,29,12,12,36.50
2015,08,29,12,13,30.40
2015,08,29,12,14,16.20
2015,08,29,12,15,27.00
2015,08,29,12,16,19.80
2015,08,29,12,17,30.20
2015,08,29,12,18,35.20
2015,08,29,12,19,29.40
2015,08,29,12,20,20.20
2015,08,29,12,21,25.40
2015,08,29,12,22,25.70
2015,08,29,12,23,24.10
2015,08,29,12,24,23.80
2015,08,29,12,25,30.70
2015,08,29,12,26,22.90
2015,08,29,12,27,35.30
2015,08,29,12,28,28.10
2015,08,29,12,31,25.30
2015,08,29,12,32,13.70
2015,08,29,12,33,10.10
2015,08,29,12,34,13.10
2015,08,29,12,35,11.10
2015,08,29,12,36,11.50
2015,08,29,12,37,14.70
2015,08,29,12,38,19.30
2015,08,29,12,39,19.60
2015,08,29,12,40,18.20
2015,08,29,12,41,17.70
2015,08,29,12,42,12.30
2015,08,29,12,43,12.60
2015,08,29,12,44,17.10
2015,08,29,12,45,19.30
2015,08,29,12,46,22.00
2015,08,29,12,47,16.80
2015,08,29,12,48,27.10
2015,08,29,12,49,21.70
2015,08,29,12,50,14.40
2015,08,29,12,51,13.40
2015,08,29,12,52,17.90
2015,08,29,12,53,18.50
2015,08,29,12,54,17.10
2015,08,29,12,55,16.20
2015,08,29,12,56,16.00
2015,08,29,12,57,16.50
2015,08,29,12,58,17.20
2015,08,29,12,59,16.30
2015,08,29,13,00,9.20
2015,08,29,13,01,13.00
2015,08,29,13,02,8.20
2015,08,29,13,03,10.00
2015,08,29,13,04,15.00
2015,08,29,13,05,10.40
2015,08,29,13,06,9.30
2015,08,29,13,07,11.40
2015,08,29,13,08,7.40
2015,08,29,13,09,11.20
2015,08,29,13,10,10.60
2015,08,29,13,11,12.00
2015,08,29,13,12,11.50
2015,08,29,13,13,12.90
2015,08,29,13,14,11.80
2015,08,29,13,15,13.90
2015,08,29,13,16,19.90
2015,08,29,13,17,20.00
2015,08,29,13,18,24.90
2015,08,29,13,19,11.90
2015,08,29,13,20,14.50
2015,08,29,13,21,19.90
2015,08,29,13,22,24.00
2015,08,29,13,23,18.20
2015,08,29,13,24,19.30
2015,08,29,13,25,24.70
2015,08,29,13,26,14.60
2015,08,29,13,27,19.10
2015,08,29,13,28,30.80
2015,08,29,13,29,30.60
2015,08,29,13,30,27.90
2015,08,29,13,31,29.40
2015,08,29,13,32,36.30
2015,08,29,13,33,21.90
2015,08,29,13,34,34.50
2015,08,29,13,35,19.70
2015,08,29,13,36,18.50
2015,08,29,13,37,18.70
2015,08,29,13,38,26.20
2015,08,29,13,39,21.60
2015,08,29,13,40,29.40
2015,08,29,13,41,27.40
2015,08,29,13,42,22.90
2015,08,29,13,43,22.50
2015,08,29,13,44,22.40
2015,08,29,13,45,17.20
2015,08,29,13,46,18.70
2015,08,29,13,47,22.60
2015,08,29,13,48,21.60
2015,08,29,13,49,15.00
2015,08,29,13,50,20.00
2015,08,29,13,51,20.90
2015,08,29,13,52,13.80
2015,08,29,13,53,15.80
2015,08,29,13,54,15.50
2015,08,29,13,55,12.20
2015,08,29,13,56,12.10
2015,08,29,13,57,21.20
2015,08,29,13,58,19.60
2015,08,29,13,59,25.80
2015,08,29,14,00,25.20
2015,08,29,14,01,22.30
2015,08,29,14,02,22.30
2015,08,29,14,03,18.40
2015,08,29,14,04,11.60
2015,08,29,14,05,15.90
2015,08,29,14,06,11.50
2015,08,29,14,07,9.90
2015,08,29,14,08,28.80
2015,08,29,14,09,15.80
2015,08,29,14,10,18.20
2015,08,29,14,11,22.60
2015,08,29,14,12,13.30
2015,08,29,14,13,24.40
2015,08,29,14,14,20.30
2015,08,29,14,15,27.40
2015,08,29,14,16,22.00
2015,08,29,14,17,29.80
2015,08,29,14,18,22.20
2015,08,29,14,19,25.80
2015,08,29,14,20,26.10
2015,08,29,14,21,23.10
2015,08,29,14,22,29.70
2015,08,29,14,23,20.50
2015,08,29,14,24,15.90
2015,08,29,14,25,23.20
2015,08,29,14,26,27.20
2015,08,29,14,27,15.10
2015,08,29,14,28,7.40
2015,08,29,14,29,11.00
2015,08,29,14,30,7.30
2015,08,29,14,31,8.20
2015,08,29,14,32,22.00
2015,08,29,14,33,16.90
2015,08,29,14,34,21.50
2015,08,29,14,35,7.80
2015,08,29,14,36,6.20
2015,08,29,14,37,10.70
2015,08,29,14,38,12.50
2015,08,29,14,39,16.70
2015,08,29,14,40,28.00
2015,08,29,14,41,10.80
2015,08,29,14,42,11.90
2015,08,29,14,43,20.40
2015,08,29,14,44,17.80
2015,08,29,14,45,13.50
2015,08,29,14,46,9.30
2015,08,29,14,47,11.10
2015,08,29,14,48,5.50
2015,08,29,14,49,7.70
2015,08,29,14,50,5.10
2015,08,29,14,51,6.80
2015,08,29,14,52,7.20
2015,08,29,14,53,7.20
2015,08,29,14,54,6.60
2015,08,29,14,55,6.40
2015,08,29,14,56,10.50
2015,08,29,14,57,15.10
2015,08,29,14,58,6.80
2015,08,29,14,59,7.20
2015,08,29,15,00,3.60
2015,08,29,15,01,1.80
2015,08,29,15,02,8.80
2015,08,29,15,03,10.90
2015,08,29,15,04,9.90
2015,08,29,15,05,15.60
2015,08,29,15,06,34.20
2015,08,29,15,07,23.90
2015,08,29,15,08,29.10
2015,08,29,15,09,28.60
2015,08,29,15,10,34.00
2015,08,29,15,11,19.70
2015,08,29,15,12,19.10
2015,08,29,15,13,31.90
2015,08,29,15,14,36.20
2015,08,29,15,15,24.50
2015,08,29,15,16,18.50
2015,08,29,15,17,18.80
2015,08,29,15,18,24.80
2015,08,29,15,19,15.90
2015,08,29,15,20,10.10
2015,08,29,15,21,13.40
2015,08,29,15,22,12.50
2015,08,29,15,23,11.00
2015,08,29,15,24,6.80
2015,08,29,15,25,9.30
2015,08,29,15,26,1.80
2015,08,29,15,27,6.10
2015,08,29,15,28,8.10
2015,08,29,15,29,8.10
2015,08,29,15,30,5.60
2015,08,29,15,31,6.20
2015,08,29,15,32,12.70
2015,08,29,15,33,9.30
2015,08,29,15,34,10.40
2015,08,29,15,35,11.70
2015,08,29,15,36,13.70
2015,08,29,15,37,8.50
2015,08,29,15,38,4.50
2015,08,29,15,39,7.90
2015,08,29,15,40,20.40
2015,08,29,15,41,12.90
2015,08,29,15,42,11.90
2015,08,29,15,43,13.40
2015,08,29,15,44,12.30
2015,08,29,15,45,12.50
2015,08,29,15,46,16.80
2015,08,29,15,47,13.60
2015,08,29,15,48,10.90
2015,08,29,15,49,17.90
2015,08,29,15,50,30.70
2015,08,29,15,51,17.50
2015,08,29,15,52,10.70
2015,08,29,15,53,14.60
2015,08,29,15,54,17.70
2015,08,29,15,55,22.10
2015,08,29,15,56,20.10
2015,08,29,15,57,12.10
2015,08,29,15,58,6.80
2015,08,29,15,59,8.70
2015,08,29,16,00,9.90
2015,08,29,16,01,9.80
2015,08,29,16,02,10.10
2015,08,29,16,03,8.80
2015,08,29,16,04,3.90
2015,08,29,16,05,8.60
2015,08,29,16,06,5.90
2015,08,29,16,07,6.80
2015,08,29,16,08,8.50
2015,08,29,16,09,10.40
2015,08,29,16,10,10.50
2015,08,29,16,11,8.20
2015,08,29,16,12,9.90
2015,08,29,16,13,14.30
2015,08,29,16,14,13.40
2015,08,29,16,15,9.40
2015,08,29,16,16,11.60
2015,08,29,16,17,14.90
2015,08,29,16,18,12.00
2015,08,29,16,19,7.60
2015,08,29,16,20,11.30
2015,08,29,16,21,9.80
2015,08,29,16,22,9.50
2015,08,29,16,23,8.30
2015,08,29,16,24,7.80
2015,08,29,16,25,13.40
2015,08,29,16,26,9.40
2015,08,29,16,27,8.40
2015,08,29,16,28,7.10
2015,08,29,16,29,6.90
2015,08,29,16,30,12.60
2015,08,29,16,31,14.20
2015,08,29,16,32,13.60
2015,08,29,16,33,12.00
2015,08,29,16,34,11.30
2015,08,29,16,35,6.60
2015,08,29,16,36,12.50
2015,08,29,16,37,12.10
2015,08,29,16,38,9.40
2015,08,29,16,39,9.30
2015,08,29,16,40,8.50
2015,08,29,16,41,12.40
2015,08,29,16,42,10.80
2015,08,29,16,43,10.10
2015,08,29,16,44,5.30
2015,08,29,16,45,7.20
2015,08,29,16,46,11.80
2015,08,29,16,47,11.90
2015,08,29,16,48,5.20
2015,08,29,16,49,9.60
2015,08,29,16,50,11.80
2015,08,29,16,51,11.10
2015,08,29,16,52,14.10
2015,08,29,16,53,14.00
2015,08,29,16,54,14.30
2015,08,29,16,55,18.50
2015,08,29,16,56,9.00
2015,08,29,16,57,16.00
2015,08,29,16,58,17.50
2015,08,29,16,59,13.10
2015,08,29,17,00,13.00
2015,08,29,17,01,10.90
2015,08,29,17,02,9.60
2015,08,29,17,03,11.20
2015,08,29,17,04,9.90
2015,08,29,17,05,14.90
2015,08,29,17,06,13.40
2015,08,29,17,07,10.80
2015,08,29,17,08,5.20
2015,08,29,17,09,7.00
2015,08,29,17,10,7.20
2015,08,29,17,11,7.20
2015,08,29,17,12,9.50
2015,08,29,17,13,11.30
2015,08,29,17,14,15.00
2015,08,29,17,15,10.40
2015,08,29,17,16,14.10
2015,08,29,17,17,11.30
2015,08,29,17,18,7.20
2015,08,29,17,19,9.00
2015,08,29,17,20,7.20
2015,08,29,17,21,9.50
2015,08,29,17,22,11.80
2015,08,29,17,23,14.70
2015,08,29,17,24,10.80
2015,08,29,17,25,11.00
2015,08,29,17,26,3.50
2015,08,29,17,27,11.90
2015,08,29,17,28,14.70
2015,08,29,17,29,8.40
2015,08,29,17,30,9.30
2015,08,29,17,31,10.10
2015,08,29,17,32,9.20
2015,08,29,17,33,8.50
2015,08,29,17,34,7.60
2015,08,29,17,35,7.50
2015,08,29,17,36,18.90
2015,08,29,17,37,15.00
2015,08,29,17,38,15.00